sat.trackr.live / text

‹ back to catalog

STARLINK-31859

NORAD 59848 · 2024-097P

PAYLOAD ACTIVE UNKNOWN

§ Identity

Operator
Country
US
Launch date
2024-05-23
Launch site
AFETR
Launch vehicle
Mass (kg)
RCS (m²)

Purposes: comms

External: N2YO · Heavens-Above · Gunter

§ Orbital elements

Epoch: 2026-09-21T15:23:42.820512Z

Period
93.93 min
Inclination
42.9977°
Eccentricity
0.0005273
Mean motion
15.33009038 rev/d
Perigee alt
463.2 km
Apogee alt
470.4 km
Semi-major
6,845.0 km
B*
1.1934e-3
RAAN
239.1869°
Arg perigee
138.2995°
Mean anomaly
221.8262°
Rev number
13,198

§ Raw data

STARLINK-318591 59848U 24097P   26264.64146783  .00038802  00000+0  11934-2 0  99952 59848  42.9977 239.1869 0005273 138.2995 221.8262 15.33009038131983

JSON: /api/v1/satellites/59848 · /tle

For live sub-satellite position, see the globe view (requires WebGL).

§ Visibility from observer

Set your observer location to see the next 7 days of passes ≥ 10°. The values pass through the URL so the page stays shareable.

No JS? Fill the form by hand. The geolocation button needs JavaScript.